Zurück zum Katalog

COSMOS 1275 DEB

AktivPO
NORAD 13022·DEBRIS·🇷🇺 Russia

Gestartet Jun 4, 1981 von Plesetsk Cosmodrome

Loading…

Nächste Überflüge (nächste 24 Stunden)

TLE

AktuellSource: Space-Track

Epoche: Sep 14, 2026, 06:35 UTC

1 13022U 81053EU  26257.27432106  .00000814  00000-0  36749-3 0  9997
2 13022  82.9177 190.4698 0045504  94.3344  57.0686 14.20497258298098

Verfolge COSMOS 1275 DEB in Echtzeit mit AllMySat

Download on the App Store